#timestamp,LO_Frequency,Hit,StdDev 
1654344015.3,286047001.6,N
1654344035.1,286047002.0,N
1654344055.9,286047001.7,N
1654344075.7,286047002.0,N
1654344095.6,286047002.6,N
1654344115.4,286046999.9,N
1654344135.2,286047000.3,N
1654344155.1,286047002.6,N
1654344156.0,286047002.6,N
1654344175.8,286047002.5,N
1654344195.7,286047001.8,N
1654344215.5,286047003.9,Y
1654344235.3,286046999.8,P
1654344255.2,286047002.0,N
1654344275.0,286047001.8,N
1654344275.9,286047001.8,N
1654344295.7,286047001.4,N
1654344315.6,286047004.1,Y
1654344335.4,286047001.9,P
1654344355.3,286047002.3,P
1654344375.1,286047000.7,N
1654344395.8,286046998.6,N
1654344415.7,286046999.2,N
1654344435.5,286046996.6,N
1654344455.4,286046997.1,N
1654344505.2,286047000.3,E
1654344515.1,286047000.7,N
1654344535.9,286047000.5,P
1654344555.7,286047001.1,P
1654344575.6,286047001.0,Y
1654344595.4,286046998.4,P
1654344615.2,286046998.5,N
1654344635.1,286046998.2,N
1654344636.0,286046998.2,N
1654344655.8,286047000.3,N
1654344675.6,286047000.2,N
1654344695.5,286047001.2,N
1654344715.3,286046998.5,N
1654344735.2,286047000.2,N
1654344755.9,286046998.6,N
1654344775.7,286047001.2,N
1654344795.6,286046998.1,N
1654344815.4,286046998.6,N
1654344835.2,286047001.2,N
1654344855.1,286047000.8,N
1654344856.0,286047000.8,N
1654344875.8,286047001.2,N
1654344895.7,286047002.3,N
1654344915.5,286047000.3,N
1654344935.3,286047000.1,N
1654344955.2,286047000.1,N
1654344975.0,286047000.1,N
1654344975.9,286047000.1,N
1654344995.7,286047000.3,N
1654345015.6,286047000.7,N
1654345035.4,286047000.6,N
1654345055.3,286047000.6,N
1654345075.1,286047000.3,N
1654345076.0,286047000.3,N
1654345095.8,286047000.2,N
1654345115.7,286047000.9,N
1654345135.5,286047002.4,N
1654345155.3,286047000.2,N
1654345175.2,286047001.0,N
1654345195.0,286046998.1,N
1654345195.9,286046998.1,N
1654345215.8,286047000.5,N
1654345235.6,286047000.0,N
1654345255.4,286046998.2,N
1654345275.3,286046998.3,N
1654345295.1,286046998.6,N
1654345315.9,286046998.4,N
1654345335.7,286047007.9,Y
1654345355.5,286047012.2,P
1654345375.4,286047011.5,N
1654345395.2,286047009.3,N
1654345415.0,286047008.9,N
1654345415.9,286047008.9,N
1654345435.8,286047007.2,N
1654345455.6,286047005.9,N
1654345475.5,286047004.4,N
1654345495.3,286047004.5,N
1654345545.2,286047019.2,E
1654345555.1,286047012.2,N
1654345556.0,286047012.2,P
1654345575.8,286047005.7,P
1654345595.7,286047004.8,N
1654345615.5,286047002.6,N
1654345635.3,286046998.9,N
1654345655.2,286046993.7,N
1654345675.0,286046991.7,N
1654345675.9,286046991.7,N
1654345695.7,286046992.6,N
1654345715.6,286046991.1,N
1654345735.4,286046988.5,N
1654345755.3,286046989.3,N
1654345775.1,286046989.8,N
1654345795.9,286046987.9,N
1654345815.7,286046987.5,N
1654345835.5,286046987.9,N
1654345855.4,286046987.1,N
1654345875.2,286046987.2,N
1654345895.0,286046985.4,N
1654345896.0,286046985.4,N
1654345915.8,286046985.5,N
1654345935.6,286046985.6,N
1654345955.5,286046986.1,N
1654345975.3,286046986.3,N
1654345995.2,286046985.6,N
1654346015.9,286046986.8,N
1654346035.7,286046982.2,N
1654346055.6,286046982.6,N
1654346075.4,286046984.9,N
1654346095.2,286046985.0,N
1654346115.1,286046984.6,N
1654346116.0,286046984.6,N
1654346135.8,286046982.5,Y
1654346155.7,286046996.4,P
1654346175.5,286046996.0,N
1654346195.3,286046993.4,N
1654346215.2,286046994.5,N
1654346235.0,286046994.3,N
1654346235.9,286046994.3,N
1654346255.8,286046994.3,N
1654346275.6,286046992.7,Y
1654346295.4,286046999.4,P
1654346315.3,286046999.5,N
1654346335.1,286046997.1,N
1654346355.9,286046997.1,N
1654346375.7,286046997.4,N
1654346395.5,286046997.3,N
1654346415.4,286046996.5,N
1654346435.2,286046999.2,N
1654346455.1,286046996.9,N
1654346456.0,286046996.9,N
1654346475.8,286046998.6,N
1654346495.6,286046998.6,N
1654346515.5,286047000.2,N
1654346535.3,286047001.4,N
1654346555.2,286047003.6,N
1654346575.9,286047005.9,N
1654346595.7,286047003.9,N
1654346615.6,286047003.5,N
1654346635.4,286047002.9,N
1654346655.3,286047004.9,N
1654346675.1,286047007.6,N
1654346676.0,286047007.6,N
1654346695.8,286047007.4,N
1654346715.7,286047007.2,N
1654346735.5,286047004.7,N
1654346755.4,286047003.1,N
1654346775.2,286047003.4,N
1654346795.0,286047003.9,N
1654346795.9,286047003.9,N
1654346815.8,286047001.5,N
1654346835.6,286047004.3,N
1654346855.4,286047004.3,N
1654346875.3,286047003.8,N
1654346895.1,286047004.4,N
1654346915.9,286047003.9,N
1654346935.7,286047001.3,N
1654346955.5,286047002.0,N
1654346975.4,286047002.5,N
1654346995.2,286046999.8,N
1654347015.0,286047002.2,N
1654347015.9,286047002.2,N
1654347035.8,286047004.4,N
1654347055.6,286047001.6,N
1654347075.5,286047001.9,N
1654347095.3,286047002.3,N
1654347115.1,286047000.3,N
1654347135.9,286047000.7,N
1654347155.7,286046998.5,N
1654347175.5,286046998.4,N
1654347195.4,286046999.5,N
1654347215.2,286046998.9,N
1654347235.1,286046999.0,N
1654347236.0,286046999.0,N
1654347255.8,286046998.7,N
1654347275.6,286047000.5,N
1654347295.5,286047000.7,N
1654347315.3,286047001.2,N
1654347335.1,286046999.0,N
1654347355.9,286046998.1,N
1654347375.7,286047001.2,N
1654347395.6,286046998.4,N
1654347415.4,286046998.7,N
1654347435.2,286046996.6,N
1654347455.1,286046997.0,N
1654347456.0,286046997.0,N
1654347475.8,286046996.9,N
1654347495.6,286046997.1,N
1654347515.5,286046997.8,N
1654347535.3,286046997.8,N
1654347555.2,286046999.2,N
1654347575.9,286046997.1,N
1654347595.7,286046997.4,N
